| time (UTC) | temp F | wind direction | speed MPH | gust MPH | rain 1hr in | rain 24hr in | rain mn in | humidity % | barometer mb |
| 20260906014400 | 59 | 225 | 1.0 | 3.0 | 0.00 | 0.11 | 0.00 | 99 | 1025.5 |
| 20260906013901 | 59 | 270 | 0.0 | 2.0 | 0.00 | 0.11 | 0.00 | 99 | 1025.4 |
| 20260906013400 | 59 | 270 | 0.0 | 2.0 | 0.00 | 0.11 | 0.00 | 99 | 1025.4 |
| 20260906012900 | 59 | 225 | 0.0 | 0.0 | 0.00 | 0.11 | 0.00 | 99 | 1025.3 |
| 20260906012400 | 59 | 225 | 0.0 | 2.0 | 0.00 | 0.11 | 0.00 | 99 | 1025.2 |
| 20260906011900 | 59 | 225 | 1.0 | 2.0 | 0.00 | 0.11 | 0.00 | 99 | 1025.3 |
| 20260906011400 | 59 | 225 | 1.0 | 2.0 | 0.00 | 0.11 | 0.00 | 99 | 1025.3 |
| 20260906010900 | 59 | 270 | 0.0 | 0.0 | 0.00 | 0.11 | 0.00 | 99 | 1025.3 |
| 20260906010400 | 59 | 225 | 0.0 | 0.0 | 0.00 | 0.11 | 0.00 | 99 | 1025.2 |
| 20260906005900 | 59 | 180 | 0.0 | 0.0 | 0.00 | 3.48 | 0.00 | 99 | 1025.3 |
| 20260906005400 | 59 | 225 | 1.0 | 2.0 | 0.00 | 3.48 | 0.00 | 99 | 1025.4 |
| 20260906004901 | 59 | 315 | 0.0 | 2.0 | 0.00 | 3.48 | 0.00 | 99 | 1025.1 |
| 20260906004400 | 59 | 225 | 0.0 | 1.0 | 0.00 | 3.48 | 0.00 | 99 | 1025.2 |
| 20260906003900 | 59 | 180 | 0.0 | 0.0 | 0.00 | 3.48 | 0.00 | 99 | 1025.2 |
| 20260906003400 | 58 | 225 | 0.0 | 2.0 | 0.00 | 3.48 | 0.00 | 99 | 1025.1 |
| 20260906002900 | 59 | 315 | 1.0 | 2.0 | 0.00 | 3.48 | 0.00 | 99 | 1025.3 |
| 20260906002400 | 59 | 225 | 1.0 | 2.0 | 0.00 | 3.48 | 0.00 | 99 | 1025.2 |
| 20260906001900 | 59 | 225 | 0.0 | 2.0 | 0.00 | 3.48 | 0.00 | 99 | 1025.3 |
| 20260906001400 | 59 | 225 | 0.0 | 2.0 | 0.00 | 3.48 | 0.00 | 99 | 1025.3 |
| 20260906000900 | 58 | 225 | 0.0 | 2.0 | 0.00 | 3.48 | 0.00 | 99 | 1025.2 |
| 20260906000400 | 57 | 360 | 0.0 | 2.0 | 0.00 | 3.48 | 0.00 | 99 | 1025.1 |
| 20260905235900 | 58 | 180 | 0.0 | 1.0 | 0.00 | 3.48 | 0.00 | 99 | 1025.3 |
| 20260905235400 | 58 | 315 | 1.0 | 3.0 | 0.00 | 3.48 | 0.00 | 99 | 1025.1 |
| 20260905234900 | 59 | 270 | 0.0 | 2.0 | 0.00 | 3.48 | 0.00 | 99 | 1025.2 |
| 20260905234400 | 59 | 135 | 1.0 | 2.0 | 0.00 | 3.48 | 0.00 | 99 | 1024.8 |
| 20260905233900 | 59 | 270 | 1.0 | 3.0 | 0.00 | 3.48 | 0.00 | 99 | 1025.0 |
| 20260905233400 | 58 | 90 | 0.0 | 2.0 | 0.00 | 3.48 | 0.00 | 99 | 1024.9 |
| 20260905232900 | 58 | 225 | 0.0 | 2.0 | 0.00 | 3.48 | 0.00 | 99 | 1024.9 |
| 20260905232400 | 58 | 315 | 1.0 | 2.0 | 0.00 | 3.48 | 0.00 | 99 | 1024.9 |
| 20260905231900 | 58 | 225 | 0.0 | 0.0 | 0.00 | 3.48 | 0.00 | 99 | 1025.0 |
| 20260905231400 | 58 | 225 | 0.0 | 0.0 | 0.00 | 3.48 | 0.00 | 99 | 1024.9 |
| 20260905230900 | 58 | 225 | 0.0 | 0.0 | 0.00 | 3.48 | 0.00 | 99 | 1024.9 |
| 20260905230401 | 58 | 180 | 0.0 | 0.0 | 0.00 | 3.48 | 0.00 | 99 | 1024.9 |
| 20260905225900 | 58 | 180 | 0.0 | 0.0 | 0.00 | 0.00 | 0.00 | 99 | 1024.7 |
| 20260905225400 | 58 | 270 | 0.0 | 0.0 | 0.00 | 0.00 | 0.00 | 99 | 1024.8 |
| 20260905224900 | 58 | 270 | 0.0 | 0.0 | 0.00 | 0.00 | 0.00 | 99 | 1024.8 |
| 20260905224400 | 59 | 225 | 0.0 | 2.0 | 0.00 | 0.00 | 0.00 | 99 | 1024.7 |
| 20260905223900 | 59 | 225 | 1.0 | 2.0 | 0.00 | 0.00 | 0.00 | 99 | 1024.6 |
| 20260905223400 | 59 | 270 | 0.0 | 0.0 | 0.00 | 0.00 | 0.00 | 99 | 1024.7 |
| 20260905222900 | 59 | 270 | 0.0 | 0.0 | 0.00 | 0.00 | 0.00 | 99 | 1024.7 |
| 20260905222400 | 59 | 270 | 0.0 | 2.0 | 0.00 | 0.00 | 0.00 | 99 | 1024.8 |
| 20260905221900 | 59 | 270 | 0.0 | 0.0 | 0.00 | 0.00 | 0.00 | 99 | 1024.8 |
| 20260905221359 | 59 | 270 | 0.0 | 2.0 | 0.00 | 0.00 | 0.00 | 99 | 1024.8 |
| 20260905220900 | 59 | 180 | 0.0 | 1.0 | 0.00 | 0.00 | 0.00 | 99 | 1024.9 |
| 20260905220401 | 59 | 360 | 0.0 | 0.0 | 0.00 | 0.00 | 0.00 | 99 | 1024.7 |
| 20260905215900 | 60 | 180 | 0.0 | 1.0 | 0.00 | 0.11 | 0.00 | 99 | 1024.6 |
| 20260905215405 | 60 | 315 | 1.0 | 4.0 | 0.00 | 0.11 | 0.00 | 99 | 1024.6 |
| 20260905214900 | 60 | 315 | 0.0 | 1.0 | 0.00 | 0.11 | 0.00 | 99 | 1024.4 |
| 20260905214359 | 60 | 225 | 0.0 | 2.0 | 0.00 | 0.11 | 0.00 | 99 | 1024.6 |
| 20260905213900 | 60 | 225 | 0.0 | 2.0 | 0.00 | 0.11 | 0.00 | 99 | 1024.6 |
| 20260905213400 | 59 | 360 | 0.0 | 0.0 | 0.00 | 0.11 | 0.00 | 99 | 1024.5 |
| 20260905212900 | 59 | 360 | 0.0 | 0.0 | 0.00 | 0.11 | 0.00 | 99 | 1024.5 |
| 20260905212400 | 60 | 315 | 0.0 | 0.0 | 0.00 | 0.11 | 0.00 | 99 | 1024.5 |
| 20260905211900 | 60 | 315 | 0.0 | 0.0 | 0.00 | 0.11 | 0.00 | 99 | 1024.5 |
| 20260905211400 | 61 | 225 | 1.0 | 3.0 | 0.00 | 0.11 | 0.00 | 99 | 1024.5 |
| 20260905210900 | 61 | 225 | 1.0 | 3.0 | 0.00 | 0.11 | 0.00 | 99 | 1024.4 |
| 20260905210400 | 61 | 225 | 0.0 | 2.0 | 0.00 | 0.11 | 0.00 | 99 | 1024.4 |
| 20260905205900 | 61 | 135 | 1.0 | 2.0 | 0.00 | 0.11 | 0.00 | 99 | 1024.4 |
| 20260905205359 | 61 | 225 | 0.0 | 1.0 | 0.00 | 0.11 | 0.00 | 99 | 1024.4 |
| 20260905204900 | 61 | 315 | 1.0 | 2.0 | 0.00 | 0.11 | 0.00 | 99 | 1024.3 |
| 20260905204359 | 61 | 315 | 1.0 | 2.0 | 0.00 | 0.11 | 0.00 | 99 | 1024.3 |
| 20260905203859 | 61 | 180 | 0.0 | 2.0 | 0.00 | 0.11 | 0.00 | 99 | 1024.2 |
| 20260905203400 | 61 | 180 | 0.0 | 2.0 | 0.00 | 0.11 | 0.00 | 99 | 1024.2 |
| 20260905202900 | 62 | 135 | 0.0 | 2.0 | 0.00 | 0.11 | 0.00 | 99 | 1024.1 |
| 20260905202359 | 62 | 315 | 1.0 | 2.0 | 0.00 | 0.11 | 0.00 | 99 | 1024.1 |
| 20260905201900 | 62 | 270 | 1.0 | 2.0 | 0.00 | 0.11 | 0.00 | 99 | 1024.2 |
| 20260905201359 | 62 | 225 | 0.0 | 0.0 | 0.00 | 0.11 | 0.00 | 99 | 1024.1 |
| 20260905200900 | 62 | 180 | 1.0 | 2.0 | 0.00 | 0.11 | 0.00 | 99 | 1024.0 |
| 20260905200400 | 62 | 180 | 1.0 | 2.0 | 0.00 | 0.11 | 0.00 | 99 | 1024.0 |
| 20260905195859 | 62 | 270 | 0.0 | 0.0 | 0.00 | 0.11 | 0.00 | 99 | 1024.0 |
| 20260905195359 | 62 | 135 | 0.0 | 0.0 | 0.00 | 0.11 | 0.00 | 99 | 1023.9 |
| 20260905194859 | 62 | 315 | 0.0 | 0.0 | 0.00 | 0.11 | 0.00 | 99 | 1023.8 |
| 20260905194359 | 62 | 90 | 0.0 | 0.0 | 0.00 | 0.11 | 0.00 | 99 | 1023.7 |
| 20260905193859 | 63 | 315 | 1.0 | 4.0 | 0.00 | 0.11 | 0.00 | 99 | 1023.8 |
| 20260905193400 | 63 | 135 | 1.0 | 2.0 | 0.00 | 0.11 | 0.00 | 99 | 1023.6 |
| 20260905192859 | 63 | 360 | 1.0 | 3.0 | 0.00 | 0.11 | 0.00 | 99 | 1023.7 |
| 20260905192359 | 63 | 225 | 1.0 | 4.0 | 0.00 | 0.11 | 0.00 | 99 | 1023.5 |
| 20260905191859 | 63 | 135 | 0.0 | 1.0 | 0.00 | 0.11 | 0.00 | 99 | 1023.7 |
| 20260905191359 | 63 | 270 | 1.0 | 3.0 | 0.00 | 0.11 | 0.00 | 99 | 1023.5 |
| 20260905190859 | 63 | 270 | 1.0 | 2.0 | 0.00 | 0.11 | 0.00 | 99 | 1023.3 |
| 20260905190400 | 63 | 135 | 0.0 | 0.0 | 0.00 | 0.11 | 0.00 | 99 | 1023.3 |
| 20260905185859 | 63 | 135 | 0.0 | 0.0 | 0.00 | 0.11 | 0.00 | 99 | 1023.2 |
| 20260905185359 | 63 | 270 | 1.0 | 2.0 | 0.00 | 0.11 | 0.00 | 98 | 1023.2 |
| 20260905184859 | 63 | 270 | 1.0 | 2.0 | 0.00 | 0.11 | 0.00 | 98 | 1023.2 |
| 20260905184359 | 63 | 180 | 0.0 | 0.0 | 0.00 | 0.11 | 0.00 | 98 | 1023.2 |
| 20260905183859 | 64 | 338 | 1.0 | 3.0 | 0.00 | 0.11 | 0.00 | 95 | 1022.9 |
| 20260905183359 | 64 | 90 | 0.0 | 2.0 | 0.00 | 0.11 | 0.00 | 95 | 1023.0 |
| 20260905182859 | 64 | 225 | 1.0 | 2.0 | 0.00 | 0.11 | 0.00 | 95 | 1022.7 |
| 20260905182359 | 64 | 180 | 0.0 | 2.0 | 0.00 | 0.11 | 0.00 | 95 | 1022.6 |
| 20260905181859 | 64 | 225 | 0.0 | 2.0 | 0.00 | 0.11 | 0.00 | 94 | 1022.7 |
| 20260905181359 | 65 | 180 | 0.0 | 1.0 | 0.00 | 0.11 | 0.00 | 94 | 1022.6 |
| 20260905180859 | 65 | 315 | 0.0 | 2.0 | 0.00 | 0.11 | 0.00 | 94 | 1022.5 |
| 20260905180359 | 65 | 315 | 0.0 | 0.0 | 0.00 | 0.11 | 0.00 | 94 | 1022.5 |
| 20260905175859 | 66 | 225 | 1.0 | 3.0 | 0.00 | 0.11 | 0.00 | 93 | 1022.5 |
| 20260905175359 | 65 | 225 | 0.0 | 0.0 | 0.00 | 0.11 | 0.00 | 92 | 1022.5 |
| 20260905174859 | 66 | 270 | 0.0 | 0.0 | 0.00 | 0.11 | 0.00 | 92 | 1022.3 |
| 20260905174400 | 66 | 225 | 1.0 | 2.0 | 0.00 | 0.11 | 0.00 | 91 | 1022.1 |
| 20260905173859 | 66 | 180 | 0.0 | 0.0 | 0.00 | 0.11 | 0.00 | 91 | 1022.1 |
| 20260905173359 | 66 | 180 | 0.0 | 2.0 | 0.00 | 0.11 | 0.00 | 91 | 1022.0 |
| 20260905172859 | 66 | 270 | 0.0 | 1.0 | 0.00 | 0.11 | 0.00 | 91 | 1022.0 |
| 20260905172359 | 66 | 225 | 0.0 | 2.0 | 0.00 | 0.11 | 0.00 | 90 | 1022.0 |
| 20260905171859 | 67 | 225 | 1.0 | 2.0 | 0.00 | 0.11 | 0.00 | 90 | 1022.0 |
| 20260905171359 | 67 | 225 | 1.0 | 2.0 | 0.00 | 0.11 | 0.00 | 90 | 1022.0 |
| 20260905170859 | 67 | 225 | 1.0 | 3.0 | 0.00 | 0.11 | 0.00 | 89 | 1021.9 |
| 20260905170359 | 67 | 270 | 0.0 | 2.0 | 0.00 | 0.11 | 0.00 | 89 | 1021.9 |
| 20260905165859 | 67 | 225 | 1.0 | 3.0 | 0.00 | 0.11 | 0.00 | 88 | 1021.8 |
| 20260905165359 | 67 | 225 | 1.0 | 2.0 | 0.00 | 0.11 | 0.00 | 87 | 1021.8 |
| 20260905164859 | 68 | 225 | 1.0 | 2.0 | 0.00 | 0.11 | 0.00 | 86 | 1021.8 |
| 20260905164359 | 68 | 225 | 1.0 | 2.0 | 0.00 | 0.11 | 0.00 | 85 | 1021.6 |
| 20260905163859 | 68 | 225 | 1.0 | 2.0 | 0.00 | 0.11 | 0.00 | 84 | 1021.7 |
| 20260905163359 | 68 | 225 | 1.0 | 2.0 | 0.00 | 0.11 | 0.00 | 83 | 1021.4 |
| 20260905162859 | 68 | 225 | 1.0 | 2.0 | 0.00 | 0.11 | 0.00 | 83 | 1021.4 |
| 20260905162359 | 68 | 180 | 1.0 | 2.0 | 0.00 | 0.11 | 0.00 | 81 | 1021.4 |
| 20260905161859 | 68 | 180 | 1.0 | 2.0 | 0.00 | 0.11 | 0.00 | 81 | 1021.4 |
| 20260905161359 | 69 | 225 | 0.0 | 2.0 | 0.00 | 0.11 | 0.00 | 78 | 1021.5 |
| 20260905160858 | 71 | 225 | 0.0 | 2.0 | 0.00 | 0.11 | 0.00 | 72 | 1021.4 |
| 20260905160359 | 71 | 270 | 1.0 | 2.0 | 0.00 | 0.11 | 0.00 | 71 | 1021.5 |
| 20260905155859 | 74 | 270 | 1.0 | 2.0 | 0.00 | 0.11 | 0.00 | 63 | 1021.4 |
| 20260905155359 | 76 | 180 | 1.0 | 3.0 | 0.00 | 0.11 | 0.00 | 61 | 1021.4 |
| 20260905154859 | 76 | 135 | 1.0 | 2.0 | 0.00 | 0.11 | 0.00 | 62 | 1021.3 |
| 20260905154359 | 76 | 225 | 1.0 | 4.0 | 0.00 | 0.11 | 0.00 | 61 | 1021.4 |
| 20260905153859 | 76 | 180 | 0.0 | 2.0 | 0.00 | 0.11 | 0.00 | 62 | 1021.4 |
| 20260905153359 | 76 | 225 | 0.0 | 2.0 | 0.00 | 0.11 | 0.00 | 63 | 1021.5 |
| 20260905152859 | 76 | 180 | 1.0 | 3.0 | 0.00 | 0.11 | 0.00 | 60 | 1021.5 |
| 20260905152359 | 76 | 180 | 1.0 | 3.0 | 0.00 | 0.11 | 0.00 | 60 | 1021.5 |
| 20260905151859 | 76 | 270 | 0.0 | 2.0 | 0.00 | 0.11 | 0.00 | 61 | 1021.4 |
| 20260905151359 | 76 | 225 | 1.0 | 3.0 | 0.00 | 0.11 | 0.00 | 62 | 1021.5 |
| 20260905150859 | 75 | 225 | 1.0 | 2.0 | 0.00 | 0.11 | 0.00 | 62 | 1021.4 |
| 20260905150359 | 76 | 270 | 1.0 | 2.0 | 0.00 | 0.11 | 0.00 | 63 | 1021.4 |
| 20260905145859 | 75 | 180 | 1.0 | 2.0 | 0.00 | 0.11 | 0.00 | 64 | 1021.5 |
| 20260905145359 | 73 | 45 | 1.0 | 2.0 | 0.00 | 0.11 | 0.00 | 70 | 1021.5 |
| 20260905144859 | 73 | 270 | 1.0 | 2.0 | 0.00 | 0.11 | 0.00 | 67 | 1021.5 |
| 20260905144358 | 75 | 180 | 1.0 | 2.0 | 0.00 | 0.11 | 0.00 | 61 | 1021.6 |
| 20260905143858 | 77 | 135 | 0.0 | 1.0 | 0.00 | 0.11 | 0.00 | 60 | 1021.6 |
| 20260905143359 | 77 | 180 | 1.0 | 2.0 | 0.00 | 0.11 | 0.00 | 61 | 1021.7 |
| 20260905142859 | 76 | 360 | 1.0 | 2.0 | 0.00 | 0.11 | 0.00 | 65 | 1021.6 |
| 20260905142358 | 75 | 135 | 0.0 | 2.0 | 0.00 | 0.11 | 0.00 | 70 | 1021.7 |
| 20260905141859 | 72 | 180 | 0.0 | 2.0 | 0.00 | 0.11 | 0.00 | 73 | 1021.7 |
| 20260905141358 | 71 | 270 | 0.0 | 1.0 | 0.00 | 0.11 | 0.00 | 72 | 1022.0 |
| 20260905140859 | 71 | 270 | 0.0 | 2.0 | 0.00 | 0.11 | 0.00 | 73 | 1021.9 |
| 20260905140359 | 71 | 158 | 1.0 | 3.0 | 0.00 | 0.11 | 0.00 | 74 | 1021.8 |
| 20260905135858 | 69 | 270 | 2.0 | 4.0 | 0.00 | 0.11 | 0.00 | 75 | 1021.9 |
| 20260905135358 | 69 | 315 | 1.0 | 2.0 | 0.00 | 0.11 | 0.00 | 75 | 1021.8 |
| 20260905134858 | 69 | 180 | 1.0 | 4.0 | 0.00 | 0.11 | 0.00 | 75 | 1021.7 |
| 20260905134358 | 70 | 135 | 2.0 | 4.0 | 0.00 | 0.11 | 0.00 | 74 | 1021.8 |
| 20260905133859 | 70 | 135 | 1.0 | 4.0 | 0.00 | 0.11 | 0.00 | 74 | 1021.9 |
| 20260905133359 | 70 | 135 | 2.0 | 6.0 | 0.00 | 0.11 | 0.00 | 73 | 1022.0 |
| 20260905132859 | 70 | 135 | 2.0 | 4.0 | 0.00 | 0.11 | 0.00 | 75 | 1022.1 |
| 20260905132358 | 70 | 135 | 2.0 | 5.0 | 0.00 | 0.11 | 0.00 | 79 | 1022.1 |
| 20260905131858 | 70 | 135 | 2.0 | 5.0 | 0.01 | 0.11 | 0.00 | 79 | 1022.1 |
| 20260905131359 | 68 | 225 | 1.0 | 2.0 | 0.01 | 0.11 | 0.00 | 77 | 1022.0 |
| 20260905130859 | 68 | 225 | 1.0 | 2.0 | 0.01 | 0.11 | 0.00 | 77 | 1022.0 |
| 20260905130358 | 69 | 225 | 0.0 | 2.0 | 0.01 | 0.11 | 0.00 | 79 | 1022.1 |
| 20260905125858 | 69 | 225 | 1.0 | 2.0 | 0.01 | 0.11 | 0.00 | 79 | 1022.1 |
| 20260905125358 | 69 | 270 | 0.0 | 2.0 | 0.01 | 0.11 | 0.00 | 82 | 1021.9 |
| 20260905124859 | 69 | 315 | 1.0 | 4.0 | 0.01 | 0.11 | 0.00 | 86 | 1022.1 |
| 20260905124358 | 68 | 225 | 1.0 | 2.0 | 0.02 | 0.11 | 0.00 | 86 | 1022.0 |
| 20260905123858 | 68 | 180 | 0.0 | 2.0 | 0.02 | 0.11 | 0.00 | 87 | 1022.1 |
| 20260905123359 | 67 | 180 | 1.0 | 2.0 | 0.02 | 0.11 | 0.00 | 87 | 1022.0 |
| 20260905122858 | 67 | 225 | 1.0 | 2.0 | 0.04 | 0.11 | 0.00 | 88 | 1022.2 |
| 20260905122359 | 67 | 315 | 0.0 | 2.0 | 0.05 | 0.09 | 0.00 | 89 | 1022.1 |
| 20260905121859 | 67 | 158 | 0.0 | 2.0 | 0.09 | 0.09 | 0.00 | 89 | 1022.4 |
| 20260905121358 | 66 | 270 | 1.0 | 2.0 | 0.09 | 0.09 | 0.00 | 88 | 1022.4 |
| 20260905120903 | 66 | 270 | 1.0 | 2.0 | 0.09 | 0.09 | 0.00 | 88 | 1022.4 |
| 20260905120358 | 66 | 270 | 1.0 | 3.0 | 0.09 | 0.09 | 0.00 | 86 | 1022.4 |
| 20260905115858 | 66 | 225 | 0.0 | 2.0 | 0.09 | 0.09 | 0.00 | 85 | 1022.5 |
| 20260905115358 | 66 | 270 | 0.0 | 2.0 | 0.09 | 0.09 | 0.00 | 84 | 1022.4 |
| 20260905114858 | 65 | 180 | 1.0 | 4.0 | 0.08 | 0.08 | 0.00 | 83 | 1022.4 |
| 20260905114358 | 66 | 225 | 1.0 | 4.0 | 0.08 | 0.08 | 0.00 | 81 | 1022.5 |
| 20260905113858 | 67 | 225 | 1.0 | 4.0 | 0.08 | 0.08 | 0.00 | 76 | 1022.4 |
| 20260905113358 | 68 | 270 | 1.0 | 4.0 | 0.07 | 0.07 | 0.00 | 72 | 1022.3 |
| 20260905112858 | 71 | 45 | 1.0 | 3.0 | 0.05 | 0.05 | 0.00 | 60 | 1022.0 |
| 20260905112358 | 72 | 45 | 1.0 | 2.0 | 0.00 | 0.00 | 0.00 | 55 | 1022.3 |
| 20260905111859 | 73 | 270 | 1.0 | 2.0 | 0.00 | 0.00 | 0.00 | 51 | 1022.5 |
| 20260905111358 | 73 | 225 | 0.0 | 1.0 | 0.00 | 0.00 | 0.00 | 49 | 1022.0 |
| 20260905110858 | 74 | 45 | 1.0 | 2.0 | 0.00 | 0.00 | 0.00 | 48 | 1021.8 |
| 20260905110358 | 74 | 180 | 1.0 | 4.0 | 0.00 | 0.00 | 0.00 | 48 | 1021.8 |
| 20260905105858 | 76 | 135 | 2.0 | 4.0 | 0.00 | 0.00 | 0.00 | 47 | 1021.8 |
| 20260905105358 | 76 | 90 | 1.0 | 3.0 | 0.00 | 0.00 | 0.00 | 47 | 1021.7 |
| 20260905104858 | 76 | 180 | 2.0 | 6.0 | 0.00 | 0.00 | 0.00 | 47 | 1021.7 |
| 20260905104359 | 76 | 90 | 2.0 | 4.0 | 0.00 | 0.00 | 0.00 | 48 | 1021.7 |
| 20260905103858 | 75 | 45 | 1.0 | 4.0 | 0.00 | 0.00 | 0.00 | 50 | 1021.7 |
| 20260905103358 | 74 | 135 | 2.0 | 5.0 | 0.00 | 0.00 | 0.00 | 50 | 1021.7 |
| 20260905102858 | 74 | 180 | 1.0 | 5.0 | 0.00 | 0.00 | 0.00 | 49 | 1021.9 |
| 20260905102358 | 74 | 135 | 2.0 | 4.0 | 0.00 | 0.00 | 0.00 | 47 | 1021.8 |
| 20260905101858 | 74 | 158 | 2.0 | 6.0 | 0.00 | 0.00 | 0.00 | 48 | 1021.7 |
| 20260905101358 | 75 | 135 | 1.0 | 4.0 | 0.00 | 0.00 | 0.00 | 46 | 1021.8 |
| 20260905100859 | 76 | 158 | 3.0 | 9.0 | 0.00 | 0.00 | 0.00 | 46 | 1021.7 |
| 20260905100358 | 77 | 90 | 1.0 | 3.0 | 0.00 | 0.00 | 0.00 | 45 | 1021.8 |
| 20260905095859 | 77 | 90 | 1.0 | 4.0 | 0.00 | 0.00 | 0.00 | 46 | 1021.7 |
| 20260905095358 | 76 | 180 | 2.0 | 7.0 | 0.00 | 0.00 | 0.00 | 48 | 1021.6 |
| 20260905094858 | 76 | 135 | 2.0 | 6.0 | 0.00 | 0.00 | 0.00 | 45 | 1021.6 |
| 20260905094358 | 77 | 135 | 1.0 | 4.0 | 0.00 | 0.00 | 0.00 | 44 | 1021.7 |
| 20260905093858 | 77 | 45 | 1.0 | 2.0 | 0.00 | 0.00 | 0.00 | 47 | 1021.6 |
| 20260905093358 | 77 | 135 | 3.0 | 8.0 | 0.00 | 0.00 | 0.00 | 48 | 1021.8 |
| 20260905092858 | 76 | 90 | 2.0 | 8.0 | 0.00 | 0.00 | 0.00 | 49 | 1021.7 |
| 20260905092358 | 75 | 135 | 2.0 | 7.0 | 0.00 | 0.00 | 0.00 | 51 | 1021.7 |
| 20260905091858 | 74 | 135 | 3.0 | 8.0 | 0.00 | 0.00 | 0.00 | 50 | 1021.5 |
| 20260905091358 | 74 | 135 | 3.0 | 7.0 | 0.00 | 0.00 | 0.00 | 51 | 1021.4 |
| 20260905090858 | 74 | 90 | 3.0 | 8.0 | 0.00 | 0.00 | 0.00 | 52 | 1021.3 |
| 20260905090358 | 74 | 135 | 1.0 | 2.0 | 0.00 | 0.00 | 0.00 | 53 | 1021.2 |
| 20260905085858 | 74 | 45 | 2.0 | 4.0 | 0.00 | 0.00 | 0.00 | 53 | 1021.2 |
| 20260905085359 | 74 | 45 | 1.0 | 4.0 | 0.00 | 0.00 | 0.00 | 58 | 1021.1 |
| 20260905084858 | 73 | 180 | 1.0 | 3.0 | 0.00 | 0.00 | 0.00 | 61 | 1021.1 |
| 20260905084358 | 73 | 180 | 1.0 | 4.0 | 0.00 | 0.00 | 0.00 | 63 | 1021.0 |
| 20260905083858 | 72 | 180 | 0.0 | 2.0 | 0.00 | 0.00 | 0.00 | 66 | 1020.9 |
| 20260905083358 | 71 | 90 | 2.0 | 5.0 | 0.00 | 0.00 | 0.00 | 67 | 1020.6 |
| 20260905082858 | 71 | 180 | 1.0 | 4.0 | 0.00 | 0.00 | 0.00 | 69 | 1020.8 |
| 20260905082358 | 71 | 90 | 2.0 | 5.0 | 0.00 | 0.00 | 0.00 | 71 | 1020.6 |
| 20260905081858 | 71 | 90 | 1.0 | 4.0 | 0.00 | 0.00 | 0.00 | 73 | 1020.6 |
| 20260905081357 | 70 | 45 | 1.0 | 4.0 | 0.00 | 0.00 | 0.00 | 74 | 1020.4 |
| 20260905080858 | 70 | 135 | 0.0 | 2.0 | 0.00 | 0.00 | 0.00 | 75 | 1020.1 |
| 20260905080358 | 70 | 180 | 0.0 | 2.0 | 0.00 | 0.00 | 0.00 | 75 | 1020.0 |
| 20260905075857 | 70 | 135 | 0.0 | 1.0 | 0.00 | 0.00 | 0.00 | 75 | 1020.1 |
| 20260905075358 | 69 | 90 | 0.0 | 2.0 | 0.00 | 0.00 | 0.00 | 75 | 1019.8 |
| 20260905074857 | 69 | 90 | 0.0 | 2.0 | 0.00 | 0.00 | 0.00 | 75 | 1019.8 |
| 20260905074357 | 69 | 270 | 1.0 | 2.0 | 0.00 | 0.00 | 0.00 | 75 | 1019.3 |
| 20260905073858 | 70 | 135 | 1.0 | 4.0 | 0.00 | 0.00 | 0.00 | 75 | 1019.5 |
| 20260905073358 | 70 | 180 | 0.0 | 0.0 | 0.00 | 0.00 | 0.00 | 75 | 1019.1 |
| 20260905072857 | 70 | 180 | 0.0 | 0.0 | 0.00 | 0.00 | 0.00 | 75 | 1019.1 |
| 20260905072357 | 70 | 180 | 0.0 | 0.0 | 0.00 | 0.00 | 0.00 | 75 | 1018.9 |
| 20260905071858 | 70 | 225 | 0.0 | 1.0 | 0.00 | 0.00 | 0.00 | 75 | 1018.7 |
| 20260905071358 | 70 | 180 | 0.0 | 1.0 | 0.00 | 0.00 | 0.00 | 75 | 1018.6 |
| 20260905070858 | 70 | 180 | 0.0 | 2.0 | 0.00 | 0.00 | 0.00 | 76 | 1018.5 |
| 20260905070357 | 69 | 135 | 1.0 | 2.0 | 0.00 | 0.00 | 0.00 | 77 | 1018.4 |
| 20260905065858 | 69 | 180 | 0.0 | 2.0 | 0.00 | 0.00 | 0.00 | 77 | 1018.4 |
| 20260905065358 | 69 | 180 | 1.0 | 2.0 | 0.00 | 0.00 | 0.00 | 78 | 1018.4 |
| 20260905064858 | 68 | 360 | 0.0 | 0.0 | 0.00 | 0.00 | 0.00 | 79 | 1018.3 |
| 20260905064358 | 68 | 360 | 0.0 | 0.0 | 0.00 | 0.00 | 0.00 | 79 | 1018.3 |
| 20260905063857 | 68 | 315 | 0.0 | 1.0 | 0.00 | 0.00 | 0.00 | 79 | 1018.2 |
| 20260905063357 | 68 | 180 | 0.0 | 0.0 | 0.00 | 0.00 | 0.00 | 79 | 1018.3 |
| 20260905062857 | 67 | 270 | 0.0 | 2.0 | 0.00 | 0.00 | 0.00 | 78 | 1018.2 |
| 20260905062357 | 68 | 180 | 0.0 | 0.0 | 0.00 | 0.00 | 0.00 | 79 | 1018.1 |
| 20260905061857 | 68 | 225 | 0.0 | 0.0 | 0.00 | 0.00 | 0.00 | 80 | 1018.0 |
| 20260905061358 | 67 | 225 | 0.0 | 0.0 | 0.00 | 0.00 | 0.00 | 80 | 1018.1 |
| 20260905060857 | 67 | 225 | 0.0 | 0.0 | 0.00 | 0.00 | 0.00 | 80 | 1018.1 |
| 20260905060358 | 67 | 225 | 0.0 | 0.0 | 0.00 | 0.00 | 0.00 | 80 | 1018.0 |
| 20260905055858 | 67 | 225 | 0.0 | 0.0 | 0.00 | 0.00 | 0.00 | 80 | 1018.0 |
| 20260905055357 | 67 | 360 | 1.0 | 2.0 | 0.00 | 0.00 | 0.00 | 80 | 1017.8 |
| 20260905054857 | 67 | 270 | 1.0 | 2.0 | 0.00 | 0.00 | 0.00 | 81 | 1017.8 |
| 20260905054357 | 67 | 45 | 1.0 | 3.0 | 0.00 | 0.00 | 0.00 | 82 | 1017.6 |
| 20260905053858 | 68 | 360 | 0.0 | 0.0 | 0.00 | 0.00 | 0.00 | 85 | 1017.5 |
| 20260905053357 | 68 | 360 | 0.0 | 0.0 | 0.00 | 0.00 | 0.00 | 85 | 1017.5 |
| 20260905052857 | 66 | 360 | 0.0 | 0.0 | 0.00 | 0.00 | 0.00 | 91 | 1017.4 |
| 20260905052357 | 64 | 360 | 0.0 | 0.0 | 0.00 | 0.00 | 0.00 | 91 | 1017.4 |
| 20260905051858 | 62 | 225 | 0.0 | 0.0 | 0.00 | 0.00 | 0.00 | 93 | 1017.4 |
| 20260905051357 | 62 | 225 | 0.0 | 0.0 | 0.00 | 0.00 | 0.00 | 93 | 1017.4 |
| 20260905050858 | 61 | 180 | 0.0 | 0.0 | 0.00 | 0.00 | 0.00 | 92 | 1017.2 |
| 20260905050358 | 61 | 225 | 0.0 | 0.0 | 0.00 | 0.00 | 0.00 | 92 | 1017.2 |
| 20260905045857 | 61 | 225 | 0.0 | 0.0 | 0.00 | 0.00 | 0.00 | 93 | 1017.2 |
| 20260905045358 | 60 | 225 | 0.0 | 0.0 | 0.00 | 0.00 | 0.00 | 93 | 1017.2 |
| 20260905044857 | 60 | 225 | 0.0 | 0.0 | 0.00 | 0.00 | 0.00 | 93 | 1017.2 |
| 20260905044357 | 60 | 180 | 0.0 | 0.0 | 0.00 | 0.00 | 0.00 | 93 | 1017.0 |
| 20260905043857 | 60 | 180 | 0.0 | 0.0 | 0.00 | 0.00 | 0.00 | 93 | 1017.0 |
| 20260905043357 | 60 | 180 | 0.0 | 0.0 | 0.00 | 0.00 | 0.00 | 93 | 1016.8 |
| 20260905042858 | 60 | 180 | 0.0 | 0.0 | 0.00 | 0.00 | 0.00 | 93 | 1016.9 |
| 20260905042357 | 60 | 360 | 1.0 | 2.0 | 0.00 | 0.00 | 0.00 | 93 | 1016.8 |
| 20260905041857 | 60 | 225 | 1.0 | 2.0 | 0.00 | 0.00 | 0.00 | 92 | 1016.9 |
| 20260905041357 | 60 | 270 | 0.0 | 0.0 | 0.00 | 0.00 | 0.00 | 92 | 1016.8 |
| 20260905040858 | 60 | 270 | 0.0 | 0.0 | 0.00 | 0.00 | 0.00 | 92 | 1016.8 |
| 20260905040357 | 60 | 270 | 0.0 | 0.0 | 0.00 | 0.00 | 0.00 | 92 | 1016.7 |
| 20260905035857 | 60 | 225 | 0.0 | 0.0 | 0.00 | 0.00 | 0.00 | 91 | 1016.6 |
| 20260905035357 | 60 | 180 | 0.0 | 0.0 | 0.00 | 0.00 | 0.00 | 91 | 1016.7 |
| 20260905034857 | 60 | 180 | 0.0 | 0.0 | 0.00 | 0.00 | 0.00 | 91 | 1016.7 |
| 20260905034357 | 60 | 270 | 0.0 | 2.0 | 0.00 | 0.00 | 0.00 | 91 | 1016.5 |
| 20260905033857 | 60 | 225 | 0.0 | 0.0 | 0.00 | 0.00 | 0.00 | 90 | 1016.5 |
| 20260905033357 | 60 | 180 | 0.0 | 0.0 | 0.00 | 0.00 | 0.00 | 90 | 1016.6 |
| 20260905032857 | 60 | 180 | 0.0 | 0.0 | 0.00 | 0.00 | 0.00 | 90 | 1016.6 |
| 20260905032357 | 60 | 270 | 0.0 | 0.0 | 0.00 | 0.00 | 0.00 | 90 | 1016.4 |
| 20260905031857 | 60 | 270 | 0.0 | 0.0 | 0.00 | 0.00 | 0.00 | 90 | 1016.4 |
| 20260905031357 | 60 | 135 | 0.0 | 0.0 | 0.00 | 0.00 | 0.00 | 90 | 1016.3 |
| 20260905030857 | 60 | 135 | 0.0 | 0.0 | 0.00 | 0.00 | 0.00 | 90 | 1016.3 |
| 20260905030357 | 61 | 360 | 2.0 | 4.0 | 0.00 | 0.00 | 0.00 | 89 | 1016.1 |
| 20260905025857 | 61 | 45 | 0.0 | 0.0 | 0.00 | 0.00 | 0.00 | 89 | 1016.1 |
| 20260905025357 | 61 | 180 | 0.0 | 2.0 | 0.00 | 0.00 | 0.00 | 90 | 1016.1 |
| 20260905024857 | 61 | 180 | 0.0 | 2.0 | 0.00 | 0.00 | 0.00 | 90 | 1016.1 |
| 20260905024357 | 61 | 180 | 0.0 | 0.0 | 0.00 | 0.00 | 0.00 | 89 | 1016.0 |
| 20260905023857 | 61 | 225 | 0.0 | 1.0 | 0.00 | 0.00 | 0.00 | 90 | 1016.1 |
| 20260905023357 | 62 | 180 | 0.0 | 0.0 | 0.00 | 0.00 | 0.00 | 90 | 1016.1 |
| 20260905022857 | 61 | 225 | 1.0 | 3.0 | 0.00 | 0.00 | 0.00 | 90 | 1016.1 |
| 20260905022357 | 61 | 225 | 1.0 | 3.0 | 0.00 | 0.00 | 0.00 | 90 | 1016.1 |
| 20260905021857 | 61 | 180 | 0.0 | 2.0 | 0.00 | 0.00 | 0.00 | 89 | 1016.2 |
| 20260905021357 | 61 | 45 | 1.0 | 3.0 | 0.00 | 0.00 | 0.00 | 89 | 1016.2 |
| 20260905020857 | 61 | 135 | 0.0 | 2.0 | 0.00 | 0.00 | 0.00 | 89 | 1016.2 |
| 20260905020357 | 62 | 360 | 1.0 | 3.0 | 0.00 | 0.00 | 0.00 | 90 | 1016.2 |
| 20260905015857 | 62 | 360 | 0.0 | 2.0 | 0.00 | 0.00 | 0.00 | 90 | 1016.1 |
| 20260905015358 | 62 | 180 | 1.0 | 4.0 | 0.00 | 0.00 | 0.00 | 90 | 1016.2 |
| 20260905014857 | 61 | 225 | 0.0 | 2.0 | 0.00 | 0.00 | 0.00 | 89 | 1016.2 |